GW4331 Weather Reports


Display with metric or nautical units.
time (UTC)temp
F
wind
direction
speed
MPH
gust
MPH
rain 1hr
in
rain 24hr
in
rain mn
in
humidity
%
barometer
mb
20260504173034 77 37 1.0 5.0 0.00 0.00 0.00 32 1012.2
20260504171549 76 151 0.0 4.0 0.00 0.00 0.00 32 1012.4
20260504081550 48 103 0.0 0.0 0.00 0.00 0.00 67 1015.5
20260504050012 48 92 0.0 0.0 0.00 0.00 0.00 65 1015.5
20260504044545 47 92 0.0 0.0 0.00 0.00 0.00 67 1015.5
20260504043110 47 92 0.0 0.0 0.00 0.00 0.00 71 1015.5
20260504041529 46 92 0.0 0.0 0.00 0.00 0.00 68 1015.3
20260504040046 45 92 0.0 0.0 0.00 0.00 0.00 68 1015.4
20260504034518 45 92 0.0 0.0 0.00 0.00 0.00 72 1015.5
20260504033056 45 92 0.0 0.0 0.00 0.00 0.00 69 1015.5
20260504031517 45 92 0.0 0.0 0.00 0.00 0.00 69 1015.5
20260504030109 45 92 0.0 0.0 0.00 0.00 0.00 68 1015.4
20260504024517 46 92 0.0 0.0 0.00 0.00 0.00 67 1015.3
20260504023050 46 92 0.0 0.0 0.00 0.00 0.00 65 1015.4
20260504021519 46 92 0.0 0.0 0.00 0.00 0.00 65 1015.3
20260504020036 46 92 0.0 0.0 0.00 0.00 0.00 63 1015.2
20260504014503 47 92 0.0 0.0 0.00 0.00 0.00 65 1015.2
20260504013039 48 92 0.0 0.0 0.00 0.00 0.00 63 1015.0
20260504011553 49 92 0.0 0.0 0.00 0.00 0.00 60 1014.7
20260504010022 50 92 0.0 0.0 0.00 0.00 0.00 58 1014.7
20260504004556 51 92 0.0 0.0 0.00 0.00 0.00 54 1014.6
20260504003037 53 92 0.0 0.0 0.00 0.00 0.00 51 1014.5
20260504001557 54 92 0.0 0.0 0.00 0.00 0.00 48 1014.5
20260504000023 56 92 0.0 0.0 0.00 0.00 0.00 44 1014.4
20260503234557 57 92 0.0 0.0 0.00 0.00 0.00 40 1014.3
20260503233035 59 92 0.0 0.0 0.00 0.00 0.00 38 1014.2
20260503231559 60 90 0.0 0.0 0.00 0.00 0.00 34 1014.1
20260503230028 60 143 0.0 1.0 0.00 0.00 0.00 32 1014.0
20260503224600 61 143 0.0 1.0 0.00 0.00 0.00 32 1014.1
20260503223030 61 92 1.0 3.0 0.00 0.00 0.00 30 1014.2
20260503221546 61 143 0.0 4.0 0.00 0.00 0.00 31 1014.1
20260503214546 61 60 0.0 2.0 0.00 0.00 0.00 30 1014.2
20260503213015 62 89 1.0 3.0 0.00 0.00 0.00 31 1014.3
20260503211532 62 150 0.0 2.0 0.00 0.00 0.00 33 1014.3
20260503210052 62 133 1.0 5.0 0.00 0.00 0.00 31 1014.3
20260503204522 61 45 1.0 5.0 0.00 0.00 0.00 32 1014.6
20260503203043 62 31 1.0 4.0 0.00 0.00 0.00 33 1014.6
20260503201507 61 189 0.0 5.0 0.00 0.00 0.00 34 1014.7
20260503200041 60 221 0.0 3.0 0.00 0.00 0.00 35 1015.0
20260503194602 61 40 2.0 4.0 0.00 0.00 0.00 33 1015.3
20260503193025 61 57 1.0 5.0 0.00 0.00 0.00 31 1015.6
20260503191600 61 42 0.0 6.0 0.00 0.00 0.00 34 1015.7
20260503190033 60 17 2.0 7.0 0.00 0.00 0.00 33 1015.9
20260503184512 61 160 2.0 7.0 0.00 0.00 0.00 33 1016.1
20260503183048 61 147 1.0 4.0 0.00 0.00 0.00 36 1016.2
20260503181521 61 63 1.0 4.0 0.00 0.00 0.00 32 1016.3
20260503180039 61 358 1.0 7.0 0.00 0.00 0.00 33 1016.3
20260503174508 60 148 1.0 7.0 0.00 0.00 0.00 34 1016.5